Charleston, WV

4:30 PM EDT on April 28, 2017 (GMT -0400)
Yeager Airport

Weather History for KCRW - October, 2012

Change the Weather History Date:

Monday, October 29, 2012

  Actual Average Record
Temperature  
Mean Temperature 37 °F 53 °F  
Max Temperature 40 °F 64 °F 84 °F (1927)
Min Temperature 33 °F 41 °F 21 °F (1965)
Degree Days  
Heating Degree Days 28 13  
Month to date heating degree days 265 256  
Since 1 July heating degree days 330 314  
Cooling Degree Days 0 0  
Month to date cooling degree days 22 16  
Year to date cooling degree days 1348 1089  
Moisture  
Dew Point 35 °F    
Average Humidity 89    
Maximum Humidity 92    
Minimum Humidity 85    
Precipitation  
Precipitation 1.19 in 0.09 in 1.82 in (1970)
Month to date precipitation 2.78 2.47  
Year to date precipitation 33.72 36.83  
Snow  
Snow 0.70 in - - ()
Month to date snowfall 0.7  
Since 1 September snowfall 0.7  
Snow Depth 0.00 in    
Sea Level Pressure  
Sea Level Pressure 29.75 in    
Wind  
Wind Speed 10 mph (WNW)    
Max Wind Speed 18 mph    
Max Gust Speed 32 mph    
Visibility 6 miles    
Events Rain , Snow    
T = Trace of Precipitation, MM = Missing Value Source: NWS Daily Summary

Daily Weather History Graph

Daily Weather History Graph

Search for Another Location

Airport or City:

Trip Planner

Search our weather history database for the weather conditions in past years. The results will help you decide how hot, cold, wet, or windy it might be!

Date:

Astronomy

Oct. 29, 2012 Rise Set
Actual Time 7:49 AM EDT 6:29 PM EDT
Civil Twilight 7:22 AM EDT 6:56 PM EDT
Nautical Twilight 6:51 AM EDT 7:27 PM EDT
Astronomical Twilight 6:20 AM EDT 7:58 PM EDT
Moon 6:21 PM EDT (10/29) 7:38 AM EDT (10/29)
Length of Visible Light 11h 34m
Length of Day
10h 39m
Full, 100% of the Moon is Illuminated
Oct 29
Full
Oct 29
Full
Nov 6
Last Quarter
Nov 13
New
Nov 20
First Quarter

Hourly Weather History & Observations

Time (EDT) Temp. Windchill Dew Point Humidity Pressure Visibility Wind Dir Wind Speed Gust Speed Precip Events Conditions
12:47 AM 39.2 °F 32.5 °F 37.4 °F 93% 29.89 in 5.0 mi NW 10.4 mph 16.1 mph 0.03 in Rain Light Rain
12:54 AM 39.9 °F 35.1 °F 37.9 °F 93% 29.90 in 5.0 mi NW 6.9 mph 16.1 mph 0.03 in Rain Light Rain
1:54 AM 39.9 °F 35.1 °F 37.0 °F 89% 29.88 in 4.0 mi Variable 6.9 mph 18.4 mph 0.01 in Rain Light Rain
2:54 AM 39.0 °F 33.4 °F 36.0 °F 89% 29.88 in 6.0 mi NW 8.1 mph 18.4 mph 0.02 in Rain Light Rain
3:46 AM 37.4 °F 30.8 °F 35.6 °F 93% 29.85 in 9.0 mi WNW 9.2 mph 17.3 mph 0.01 in Rain Light Rain
3:54 AM 37.9 °F 31.5 °F 35.1 °F 89% 29.86 in 9.0 mi NW 9.2 mph 16.1 mph 0.01 in Rain Light Rain
4:54 AM 37.9 °F 32.7 °F 35.1 °F 89% 29.86 in 6.0 mi Variable 6.9 mph - 0.03 in Rain Light Rain
5:54 AM 37.0 °F 30.4 °F 35.1 °F 93% 29.86 in 6.0 mi NW 9.2 mph - 0.04 in Rain Light Rain
6:54 AM 37.0 °F 31.0 °F 35.1 °F 93% 29.85 in 10.0 mi WNW 8.1 mph 16.1 mph 0.03 in Rain Light Rain
7:54 AM 37.0 °F 31.6 °F 34.0 °F 89% 29.85 in 10.0 mi WNW 6.9 mph - 0.02 in Rain Light Rain
8:54 AM 37.0 °F 30.4 °F 34.0 °F 89% 29.84 in 6.0 mi WNW 9.2 mph - 0.03 in Rain Light Rain
9:54 AM 37.0 °F 30.4 °F 34.0 °F 89% 29.83 in 4.0 mi WNW 9.2 mph 16.1 mph 0.01 in Rain Light Rain
10:54 AM 37.9 °F 32.1 °F 35.1 °F 89% 29.81 in 4.0 mi WNW 8.1 mph - 0.02 in Rain Light Rain
11:54 AM 37.9 °F 30.9 °F 35.1 °F 89% 29.80 in 5.0 mi WNW 10.4 mph 19.6 mph 0.04 in Rain Rain
12:54 PM 37.9 °F 32.1 °F 35.1 °F 89% 29.78 in 5.0 mi WNW 8.1 mph - 0.06 in Rain Rain
1:54 PM 37.9 °F 32.1 °F 35.1 °F 89% 29.75 in 5.0 mi West 8.1 mph - 0.06 in Rain Rain
2:54 PM 37.9 °F 30.0 °F 35.1 °F 89% 29.72 in 4.0 mi WNW 12.7 mph 18.4 mph 0.06 in Rain Rain
3:54 PM 37.9 °F 30.0 °F 36.0 °F 93% 29.70 in 5.0 mi WNW 12.7 mph 19.6 mph 0.06 in Rain Rain
4:54 PM 37.9 °F 30.5 °F 35.1 °F 89% 29.66 in 5.0 mi WNW 11.5 mph 19.6 mph 0.05 in Rain Rain
5:54 PM 37.9 °F 30.5 °F 35.1 °F 89% 29.65 in 4.0 mi NW 11.5 mph 19.6 mph 0.05 in Rain Rain
6:54 PM 37.0 °F 29.3 °F 35.1 °F 93% 29.62 in 5.0 mi West 11.5 mph 19.6 mph 0.08 in Rain Rain
7:54 PM 37.0 °F 29.3 °F 34.0 °F 89% 29.59 in 6.0 mi WNW 11.5 mph 27.6 mph 0.09 in Rain Rain
8:54 PM 37.0 °F 29.3 °F 34.0 °F 89% 29.57 in 6.0 mi West 11.5 mph 25.3 mph 0.08 in Rain Rain
9:54 PM 36.0 °F 27.1 °F 33.1 °F 89% 29.54 in 6.0 mi West 13.8 mph 27.6 mph 0.09 in Rain Rain
10:54 PM 35.1 °F 25.5 °F 32.0 °F 89% 29.52 in 6.0 mi West 15.0 mph 25.3 mph 0.07 in Rain , Snow Rain
11:54 PM 34.0 °F 24.6 °F 32.0 °F 92% 29.49 in 4.0 mi West 13.8 mph 21.9 mph 0.09 in Snow Light Snow